300P/Catalina (2009)

Japanese version
Home page
Updated on April 13, 2014

---------------------------------------------------------------------

* Profile

* Orbital Elements

Epoch 2010 Jan. 4.0 TT = JDT 2455200.5
T 2009 Dec. 28.79920 TT                                 MPC
q   0.8230894            (2000.0)            P               Q
n   0.22316737     Peri.  222.74287     +0.74649277     +0.65802883
a   2.6918380      Node    95.83241     -0.58055896     +0.71660430
e   0.6942277      Incl.    5.69533     -0.32511510     +0.23124953
P   4.42
From 558 observations 2005 May 6-2014 Apr. 10, mean residual 0".5.

* Finding Charts

* Magnitudes Graph

        H = 17.5  G = 0.15                [   ,-73]  (             - 2009 Oct. 16)
        m1 = 16.0 + 5 log d + 23.0 log r  [-73, 85]  (2009 Oct. 16 - 2010 Mar. 23 )
        H = 17.5  G = 0.15                [ 85,   ]  (2010 Mar. 23 -             )

---------------------------------------------------------------------

The orbital elements are published on M.P.E.C. 2014-G70.
The charts are made with StellaNavigator Ver.8 (AstroArts).
The magnitudes graphs are made with Comet for Windows.

---------------------------------------------------------------------

Copyright(C) Seiichi Yoshida (comet@aerith.net). All rights reserved.